Home > Weather > Stockerau > Past weeks

Flag for Austria Weather for the Past 2 Weeks in Stockerau, Lower Austria, Austria

Now
27 °F

Fog.


Feels Like: 27 °F
Forecast: 33 / 44 °F
Wind: 2 mph from North

Location: Tulln Airport

Current Time: Feb 12, 2016 at 8:51:48 AM

Latest Report: Feb 12, 2016 at 7:50 AM


Visibility: 15 mi

Pressure: 29.74 "Hg

Humidity: 93%

Dew point: 25 °F

Location of StockerauLocation

Historic Weather in Stockerau — Graph

°F

Stockerau Temperature Yesterday

Maximum temperature yesterday: 43 °F (at 11:50 AM)
Minimum temperature yesterday: 32 °F (at 9:50 PM)
Average temperature yesterday: 40 °F

High & Low Weather Summary for the Past Weeks

 TemperatureHumidityPressure
High59 °F (Jan 28, 11:50 AM)100% (Jan 29, 5:50 AM)30.42 "Hg (Jan 29, 5:50 AM)
Low27 °F (Feb 12, 4:50 AM)48% (Jan 28, 1:50 PM)29.30 "Hg (Feb 9, 8:50 PM)
Average45 °F76%29.98 "Hg
* Reported Jan 28 6:50 AM — Feb 12 6:50 AM, Stockerau, Weather by CustomWeather, © 2016

Note: Actual official high and low records may vary slightly from our data, if they occured in-between our weather recording intervals... More about our weather records

Advertising

Stockerau Weather History for the Previous 24 Hours

 ConditionsComfort  
Time TempWeatherWind HumidityBarometerVisibility
6:50 AM
Fri, Feb 12
27 °FFog.2 mph93%29.74 "Hg7 mi
5:50 AM27 °FPassing clouds.2 mph100%29.74 "Hg9 mi
4:50 AM27 °FClear.5 mph100%29.74 "Hg7 mi
9:50 PM
Thu, Feb 11
32 °FPassing clouds.3 mph87%29.77 "Hg19 mi
8:50 PM36 °FPassing clouds.3 mph81%29.77 "Hg19 mi
7:50 PM37 °FPassing clouds.8 mph75%29.77 "Hg19 mi
6:50 PM37 °FClear.10 mph75%29.77 "Hg19 mi
5:50 PM37 °FPassing clouds.10 mph75%29.77 "Hg25 mi
4:50 PM39 °FPassing clouds.17 mph75%29.74 "Hg31 mi
3:50 PM41 °FPassing clouds.22 mph70%29.74 "Hg31 mi
3:20 PM43 °FPassing clouds.25 mph66%29.74 "Hg31 mi
2:50 PM43 °FPassing clouds.25 mph66%29.74 "Hg31 mi
1:50 PM43 °FPassing clouds.25 mph66%29.74 "Hg31 mi
12:50 PM43 °FScattered clouds.29 mph66%29.74 "Hg31 mi
11:50 AM43 °FScattered clouds.25 mph66%29.71 "Hg31 mi
11:20 AM41 °FScattered clouds.25 mph76%29.74 "Hg31 mi
10:50 AM41 °FScattered clouds.24 mph70%29.71 "Hg31 mi
10:20 AM41 °FScattered clouds.23 mph70%29.71 "Hg31 mi
9:50 AM41 °FScattered clouds.26 mph70%29.71 "Hg31 mi
8:50 AM41 °FBroken clouds.26 mph70%29.68 "Hg31 mi
Weather by CustomWeather, © 2016

See weather overviewHow to use our weather pages